#timestamp,LO_Frequency,Hit,StdDev 
1552269615.6,286047002.0,N
1552269635.5,286047003.6,N
1552269655.3,286047003.7,N
1552269675.1,286047002.2,N
1552269695.9,286047004.3,N
1552269715.7,286046998.7,N
1552269735.6,286046996.5,N
1552269755.4,286046997.7,N
1552269775.2,286046996.6,N
1552269795.1,286046999.0,N
1552269796.0,286046999.0,N
1552269815.8,286046998.1,N
1552269835.7,286046998.8,N
1552269855.5,286046997.9,N
1552269875.3,286046994.9,N
1552269895.2,286046996.5,N
1552269915.0,286046998.7,N
1552269915.9,286046998.7,N
1552269935.7,286046998.3,N
1552269955.6,286046996.7,N
1552269975.4,286046995.0,N
1552269995.3,286046997.9,N
1552270015.1,286046999.5,N
1552270016.0,286046999.5,N
1552270035.8,286046996.9,N
1552270055.7,286046999.5,N
1552270075.5,286046999.5,N
1552270095.3,286046996.7,N
1552270115.2,286046998.4,N
1552270135.0,286046999.2,N
1552270135.9,286046999.2,N
1552270155.8,286046999.0,N
1552270175.6,286046997.5,N
1552270195.4,286046997.3,N
1552270215.3,286046997.8,N
1552270235.1,286046997.0,N
1552270255.8,286046997.4,N
1552270275.7,286046999.1,N
1552270295.5,286047000.9,N
1552270315.4,286047001.2,N
1552270335.2,286046998.9,N
1552270355.0,286047000.4,N
1552270355.9,286047000.4,N
1552270375.8,286046999.9,N
1552270395.6,286047000.0,N
1552270415.5,286046999.0,N
1552270435.3,286046998.7,N
1552270455.1,286046996.5,N
1552270475.9,286046997.9,N
1552270495.7,286046996.2,N
1552270515.5,286046995.0,Y
1552270535.4,286046999.3,P
1552270555.2,286047000.4,N
1552270575.1,286047000.1,N
1552270576.0,286047000.1,N
1552270595.8,286047001.5,N
1552270615.6,286047000.9,N
1552270635.5,286046999.2,N
1552270655.3,286046998.9,N
1552270675.1,286047000.8,N
1552270695.9,286047000.6,N
1552270715.7,286047002.5,N
1552270735.6,286047011.9,Y
1552270755.4,286047002.7,P
1552270775.2,286047002.5,N
1552270795.1,286047002.7,N
1552270796.0,286047002.7,N
1552270815.8,286047000.0,N
1552270835.6,286046999.9,N
1552270855.5,286047000.4,N
1552270875.3,286046999.3,N
1552270895.2,286046997.4,N
1552270915.9,286046999.0,N
1552270935.7,286046996.8,N
1552270955.6,286046997.9,N
1552270975.4,286046995.4,N
1552270995.2,286046995.0,N
1552271015.1,286046997.8,N
1552271016.0,286046997.8,N
1552271035.8,286046997.1,N
1552271055.6,286046997.8,N
1552271075.5,286046996.7,N
1552271095.3,286046999.6,N
1552271115.2,286046996.9,N
1552271135.9,286046999.0,N
1552271155.7,286047000.8,N
1552271175.6,286047003.9,N
1552271195.4,286047000.2,N
1552271215.2,286047002.3,N
1552271235.1,286047002.6,N
1552271236.0,286047002.6,N
1552271255.8,286046998.6,N
1552271275.7,286046998.4,N
1552271295.5,286047002.7,N
1552271315.3,286046999.9,N
1552271335.2,286047001.9,N
1552271355.0,286047001.5,N
1552271355.9,286047001.5,N
1552271375.7,286047001.8,N
1552271395.6,286047001.5,N
1552271415.4,286047001.4,N
1552271435.3,286047002.2,N
1552271455.1,286047000.6,N
1552271456.0,286047000.6,N
1552271475.8,286046999.8,N
1552271495.7,286047004.4,N
1552271515.5,286047001.4,N
1552271535.3,286047001.3,N
1552271555.2,286047006.0,N
1552271575.0,286047005.5,N
1552271575.9,286047005.5,N
1552271595.8,286047003.4,N
1552271615.6,286047002.5,N
1552271635.4,286047003.9,N
1552271655.3,286047002.2,N
1552271675.1,286047002.3,N
1552271695.8,286047000.1,N
1552271715.7,286047004.3,N
1552271735.5,286047001.6,N
1552271755.4,286047000.0,N
1552271775.2,286047001.0,N
1552271795.0,286047002.7,N
1552271795.9,286047002.7,N
1552271815.8,286047001.8,N
1552271835.6,286047004.1,N
1552271855.4,286047005.4,Y
1552271875.3,286046998.2,P
1552271895.1,286047001.2,N
1552271915.9,286047000.4,N
1552271935.7,286046999.7,N
1552271955.5,286047001.9,N
1552271975.4,286047001.8,N
1552271995.2,286047001.6,N
1552272015.0,286047004.0,Y
1552272016.0,286047004.0,P
1552272035.8,286047002.0,N
1552272055.6,286047002.5,N
1552272075.5,286047002.3,N
1552272095.3,286047000.6,N
1552272115.1,286047002.7,N
1552272135.9,286047000.0,N
1552272155.7,286047000.8,N
1552272175.5,286046998.4,N
1552272195.4,286046999.4,N
1552272215.2,286046996.7,N
1552272235.1,286046995.3,N
1552272236.0,286046995.3,N
1552272255.8,286046996.8,N
1552272275.6,286046999.6,N
1552272295.5,286046998.8,N
1552272315.3,286047000.9,N
1552272335.2,286047000.9,N
1552272355.9,286047002.7,N
1552272375.7,286047002.3,N
1552272395.6,286047002.5,N
1552272415.4,286047001.7,N
1552272435.2,286047002.4,N
1552272455.1,286047001.5,N
1552272456.0,286047001.5,N
1552272475.8,286046999.8,N
1552272495.7,286047000.7,N
1552272515.5,286046998.3,N
1552272535.3,286047001.0,N
1552272555.2,286047000.5,N
1552272575.0,286046999.8,N
1552272575.9,286046999.8,N
1552272595.8,286047000.7,N
1552272615.6,286047001.2,N
1552272635.4,286046999.3,N
1552272655.3,286046998.7,N
1552272675.1,286046999.0,N
1552272695.8,286046998.1,N
1552272715.7,286047001.1,N
1552272735.5,286047000.6,N
1552272755.3,286047002.8,N
1552272775.2,286047002.4,N
1552272795.0,286047002.3,N
1552272795.9,286047002.3,N
1552272815.8,286047002.7,N
1552272835.6,286047002.7,N
1552272855.4,286047001.9,N
1552272875.3,286047003.9,N
1552272895.1,286047002.8,N
1552272915.9,286046998.7,N
1552272935.7,286046997.2,N
1552272955.5,286046995.3,N
1552272975.4,286046995.6,N
1552272995.2,286046997.2,N
1552273015.0,286046998.9,N
1552273015.9,286046998.9,N
1552273035.8,286047001.2,N
1552273055.6,286046996.9,N
1552273075.5,286046997.0,N
1552273095.3,286047000.1,N
1552273115.1,286047001.4,N
1552273135.9,286047005.8,N
1552273155.7,286047005.8,N
1552273175.5,286047004.6,N
1552273195.4,286047001.7,N
